Regional Weather Roundup
Issued by NWS Green Bay, WI

Home | Current Version | Previous Version | Text Only | Print | Product List | Glossary On
Versions: 1 2 3 4 5 6 7 8 9 10 11 12 13 14 15 16 17 18 19 20 21 22 23 24 25 26 27 28 29 30 31 32 33 34 35 36 37 38 39 40 41 42 43 44 45 46 47 48 49 50
000
ASUS43 KGRB 240911
RWRGRB

NORTH-CENTRAL AND NORTHEAST WISCONSIN REGIONAL WEATHER ROUNDUP
NATIONAL WEATHER SERVICE GREEN BAY WI
400 AM CDT TUE APR 24 2018

WIZ005-009-010>012-018-019-241000-
NORTH CENTRAL WISCONSIN

CITY           SKY/WX    TMP DP  RH WIND       PRES   REMARKS
IRONWOOD       FAIR      34  28  79 CALM      30.13R
MANITOWISH WTR FAIR      29  27  92 CALM      30.11F
ARBOR VITAE    FAIR      34  28  79 CALM      30.11F
EAGLE RIVER    FAIR      29  24  82 CALM      30.11S
LAND O LAKES   FAIR      28  25  87 CALM      30.13S
RHINELANDER    FAIR      33  26  75 CALM      30.12S
PHILLIPS       FAIR      31  28  88 CALM      30.11F
ANTIGO         FAIR      34  28  80 CALM      30.11F
TOMAHAWK       FAIR      29  24  84 CALM      30.12F
MERRILL        FAIR      30  27  89 CALM      30.12S
$$

WIZ013-073-241000-
NORTHEAST WISCONSIN

CITY           SKY/WX    TMP DP  RH WIND       PRES   REMARKS
IRON MOUNTAIN  FAIR      32  26  78 NW3       30.09F
MARINETTE      FAIR      31  28  89 CALM      30.12S
OCONTO         FAIR      31  29  94 CALM      30.11S
$$

WIZ017-030-035>037-045-241000-
CENTRAL WISCONSIN

CITY           SKY/WX    TMP DP  RH WIND       PRES   REMARKS
MEDFORD        FAIR      33  29  86 CALM      30.11F
WAUSAU         FAIR      35  27  72 CALM      30.10S
MOSINEE        FAIR      36  27  69 N3        30.12F
MARSHFIELD     FAIR      39  30  70 CALM      30.10S
WISC RAPIDS    FAIR      34  27  75 CALM      30.12S
STEVENS POINT  FAIR      29  24  82 CALM      30.12S
WAUPACA        FAIR      36  29  77 CALM      30.12S
SHAWANO        FAIR      33  29  86 CALM      30.11S
CLINTONVILLE   FAIR      34  28  77 CALM      30.11S
WAUTOMA        FAIR      33  29  85 CALM      30.12S
$$

WIZ038-039-048-051-241000-
FOX VALLEY

CITY           SKY/WX    TMP DP  RH WIND       PRES   REMARKS
NWS GREEN BAY  FAIR      39  34  82 CALM      30.11S
APPLETON       FAIR      43  28  56 NW7       30.09S
OSHKOSH        FAIR      43  33  68 NW6       30.10S
FOND DU LAC    FAIR      41  31  67 NW5       30.09S
$$

WIZ022-050-052-241000-
EAST CENTRAL WISCONSIN

CITY           SKY/WX    TMP DP  RH WIND       PRES   REMARKS
EPHRAIM        FAIR      42  26  54 N5        30.10S
WASHINGTON ISL FAIR      32  29  88 CALM      30.10S
STURGEON BAY   FAIR      42  27  55 NW7       30.11F
MANITOWOC      FAIR      44  30  57 N7        30.09F
SHEBOYGAN      FAIR      44  34  67 N5        30.07S
$$

LMZ563-521-522-541>543-241000-
LAKESHORE

STATION/POSITION TIME  TEMP    WIND        PRES    VSBY  WAVE
                       AIR SEA DIR/SP/G                  HT/PER
                 (UTC) (F)     (DEG/KT/KT) (MB)    (MI)  (FT/S)
SHEBOYGAN LKSHOR 0900   49     350/ 13/ 14 1018.3F
KEWAUNEE LKSHORE 0842   44     290/  5/  6 1018.3F
NORTHPORT PIER   0840   39                 1019.6S
SISTER BAY LKSHO 0857   37        CALM       N/A
MENOMINEE LKSHOR 0836   41     290/  3/  3 1019.2F
$$




USA.gov is the U.S. government's official web portal to all federal, state and local government web resources and services.